This is the latest recevied weather packets stored in our database for station/object KJ4UBX-11. If no packets are shown the sender has not sent any weather packets the latest 10 day(s).
| Time | Temp. | Humidity | Pressure | Rain* | Wind** | Luminosity | Snow |
|---|---|---|---|---|---|---|---|
| 1777698579 | 4.44° C | 72% | 1010.8 hPa | - | - | - | - |
| 1777697997 | 5° C | 71% | 1010.8 hPa | - | - | - | - |
| 1777697414 | 5° C | 71% | 1010.9 hPa | - | - | - | - |
| 1777696832 | 5° C | 69% | 1010.8 hPa | - | - | - | - |
| 1777696249 | 5° C | 67% | 1010.8 hPa | - | - | - | - |
| 1777695667 | 5.56° C | 69% | 1010.7 hPa | - | - | - | - |
| 1777695084 | 5.56° C | 66% | 1010.6 hPa | - | - | - | - |
| 1777694501 | 6.11° C | 68% | 1010.7 hPa | - | - | - | - |
| 1777693919 | 6.11° C | 64% | 1010.6 hPa | - | - | - | - |
| 1777693337 | 6.11° C | 64% | 1010.6 hPa | - | - | - | - |
| 1777692754 | 6.11° C | 62% | 1010.5 hPa | - | - | - | - |
| 1777692171 | 6.67° C | 61% | 1010.6 hPa | - | - | - | - |
| 1777691589 | 6.67° C | 61% | 1010.5 hPa | - | - | - | - |
| 1777691007 | 7.22° C | 62% | 1010.4 hPa | - | - | - | - |
| 1777690424 | 7.22° C | 60% | 1010.5 hPa | - | - | - | - |
| 1777689841 | 7.78° C | 59% | 1010.5 hPa | - | - | - | - |
| 1777689257 | 7.78° C | 59% | 1010.4 hPa | - | - | - | - |
| 1777688677 | 8.33° C | 55% | 1010.4 hPa | - | - | - | - |
| 1777688095 | 8.33° C | 53% | 1010.3 hPa | - | - | - | - |
| 1777687513 | 8.89° C | 52% | 1010.3 hPa | - | - | - | - |
| 1777686930 | 8.89° C | 50% | 1010.2 hPa | - | - | - | - |
| 1777686348 | 9.44° C | 51% | 1010.3 hPa | - | - | - | - |
| 1777685766 | 9.44° C | 50% | 1010.2 hPa | - | - | - | - |
| 1777685184 | 10° C | 49% | 1010.2 hPa | - | - | - | - |
| 1777684601 | 10.56° C | 45% | 1010 hPa | - | - | - | - |
* Rain since midnight (hover to see other rain measurements)
** Current wind speed in m/s (hover to see current wind gust speed)